Voltar ao catálogo

USA 415

AtivoMilitarVLEO
NORAD 61036·PAYLOAD·🇺🇸 United States

Lançado Sep 6, 2024 de Vandenberg Space Force Base

Loading…

Próximas Passagens (próximas 24 horas)

TLE

ObsoletoSource: Mike McCants

Época: Sep 4, 2026, 21:04 UTC

1 61036U 24160R   26247.87805011 0.00000000  00000-0  00000-0 0    03
2 61036  70.0230 156.7593 0002000 190.6852 169.3148 14.96713108    01

Acompanhe USA 415 em tempo real com AllMySat

Download on the App Store